Home   Weather   Baghlan   Past weeks

Flag for Afghanistan Past Weather in Baghlan, Afghanistan — Yesterday and Last 2 Weeks

Now
55 °F

Passing clouds.


Feels Like: 55 °F
Forecast: 49 / 75 °F
Wind: 5 mph from North

Location: Termez Airport

Current Time: Dec 3, 2016 at 10:27:50 pm

Latest Report: Dec 3, 2016 at 9:30 pm


Visibility: N/A

Pressure: 30.12 "Hg (28.25 "Hg at 536m altitude)

Humidity: 63%

Dew Point: 43 °F

Location of BaghlanLocation

Past Weather in Baghlan — Graph

°F

Baghlan Temperature Yesterday

Maximum temperature yesterday: 68 °F (at 1:30 pm)
Minimum temperature yesterday: 36 °F (at 6:00 am)
Average temperature yesterday: 50 °F

High & Low Weather Summary for the Past Weeks

 TemperatureHumidityPressure
High68 °F (Dec 2, 1:30 pm)93% (Nov 23, 6:00 pm)30.77 "Hg (Nov 23, 6:00 pm)
Low14 °F (Nov 27, 5:30 am)23% (Dec 2, 1:30 pm)30.04 "Hg (Nov 18, 8:30 pm)
Average37 °F69%30.40 "Hg
* Reported Nov 18 8:30 pm — Dec 3 9:00 pm, Baghlan, Weather by CustomWeather, © 2016

Note: Actual official high and low records may vary slightly from our data, if they occured in-between our weather recording intervals... More about our weather records

Advertising

Baghlan Weather History for the Previous 24 Hours

Scroll right to see more
 ConditionsComfort  
Time TempWeatherWind HumidityBarometerVisibility
9:00 pm
Sat, Dec 3
55 °FPassing clouds.No wind63%30.09 "HgN/A
8:30 pm55 °FPassing clouds.5 mph63%30.12 "HgN/A
8:00 pm55 °FPassing clouds.3 mph63%30.09 "HgN/A
7:30 pm57 °FSprinkles. Passing clouds.5 mph59%30.09 "HgN/A
7:00 pm57 °FSprinkles. Passing clouds.No wind55%30.12 "Hg5 mi
6:30 pm57 °FPassing clouds.6 mph59%30.09 "Hg4 mi
6:00 pm59 °FPassing clouds.3 mph55%30.07 "Hg3 mi
5:30 pm59 °FPassing clouds.2 mph51%30.07 "Hg3 mi
5:00 pm61 °FPassing clouds.2 mph52%30.07 "Hg3 mi
4:30 pm61 °FHaze.1 mph48%30.07 "Hg3 mi
4:00 pm63 °FHaze.2 mph45%30.07 "Hg3 mi
3:30 pm64 °FHaze.3 mph46%30.07 "Hg3 mi
3:00 pm64 °FHaze.3 mph43%30.07 "Hg3 mi
2:30 pm66 °FHaze.3 mph32%30.04 "Hg3 mi
2:00 pm68 °FHaze.2 mph28%30.04 "Hg3 mi
1:30 pm66 °FClear.5 mph30%30.04 "Hg4 mi
1:00 pm64 °FClear.3 mph32%30.04 "Hg4 mi
12:30 pm64 °FHaze.3 mph34%30.07 "Hg3 mi
12:00 pm64 °FHaze.1 mph37%30.07 "Hg3 mi
11:30 am64 °FClear.No wind34%30.09 "Hg4 mi
11:00 am64 °FClear.2 mph34%30.09 "Hg4 mi
10:30 am61 °FClear.2 mph39%30.12 "Hg4 mi
10:00 am59 °FClear.5 mph42%30.12 "Hg5 mi
9:30 am57 °FPassing clouds.3 mph48%30.09 "HgN/A
9:00 am55 °FSunny.7 mph47%30.12 "Hg10 mi
8:30 am52 °FSunny.8 mph54%30.09 "Hg10 mi
8:00 am48 °FSunny.6 mph62%30.09 "Hg10 mi
7:30 am43 °FSunny.3 mph71%30.09 "Hg10 mi
7:00 am43 °FSunny.No wind71%30.09 "Hg10 mi
6:30 am41 °FClear.1 mph76%30.07 "Hg10 mi
5:30 am45 °FClear.6 mph66%30.07 "Hg10 mi
5:00 am45 °FClear.7 mph71%30.07 "Hg10 mi
4:30 am43 °FClear.8 mph76%30.07 "Hg10 mi
3:30 am45 °FClear.5 mph71%30.07 "Hg6 mi
3:00 am45 °FClear.7 mph71%30.07 "Hg6 mi
2:30 am45 °FClear.7 mph71%30.07 "Hg6 mi
1:30 am43 °FClear.6 mph81%30.07 "Hg4 mi
12:30 am43 °FClear.2 mph76%30.07 "Hg4 mi
11:30 pm
Fri, Dec 2
45 °FClear.3 mph76%30.07 "Hg10 mi
10:30 pm46 °FClear.3 mph66%30.07 "Hg6 mi
10:00 pm46 °FClear.6 mph71%30.07 "Hg6 mi
Weather by CustomWeather, © 2016

See weather overviewHow to use our weather pages